Weather History for Canby, MN

Change the Weather History Date:

Sunday, October 2, 2011

  Actual Average (KMML) Record (KMML)
Temperature  
Mean Temperature 70 °F -  
Max Temperature 84 °F 67 °F 90 °F (1953)
Min Temperature 56 °F 41 °F 18 °F (1981)
Cooling Degree Days 6    
Growing Degree Days 20 (Base 50)    
Moisture  
Dew Point 37 °F    
Average Humidity 34    
Maximum Humidity 57    
Minimum Humidity 18    
Precipitation  
Precipitation 0.00 in - - ()
Sea Level Pressure  
Sea Level Pressure 30.08 in    
Wind  
Wind Speed 11 mph (South)    
Max Wind Speed 18 mph    
Max Gust Speed 24 mph    
Visibility 10 miles    
Events      
Averages and records for this station are not official NWS values.
T = Trace of Precipitation, MM = Missing Value Source: NWS Daily Summary

Daily Weather History Graph

Daily Weather History Graph

Search for Another Location

Airport:

Trip Planner

Search our weather history database for the weather conditions in past years. The results will help you decide how hot, cold, wet, or windy it might be!

Date:

Astronomy

Oct. 02, 2011 Rise Set
Actual Time 7:23 AM CDT 7:04 PM CDT
Civil Twilight 6:54 AM CDT 7:33 PM CDT
Nautical Twilight 6:20 AM CDT 8:07 PM CDT
Astronomical Twilight 5:46 AM CDT 8:41 PM CDT
Moon 1:46 PM CDT (10/2) 10:49 PM CDT (10/2)
Length of Visible Light 12h 38m
Length of Day
11h 40m
Waxing Crescent, 35% of the Moon is Illuminated
Oct 2
Waxing Crescent
Oct 3
First Quarter
Oct 11
Full
Oct 19
Last Quarter
Oct 26
New

Hourly Weather History & Observations

Time (CDT) Temp. Dew Point Humidity Pressure Visibility Wind Dir Wind Speed Gust Speed Precip Events Conditions
12:15 AM 60.8 °F 35.1 °F 38% 30.11 in 10.0 mi South 9.2 mph - N/A   Clear
12:55 AM 60.8 °F 34.9 °F 38% 30.11 in 10.0 mi South 6.9 mph - N/A   Clear
1:14 AM 60.6 °F 34.9 °F 38% 30.10 in 10.0 mi South 8.1 mph - N/A   Clear
1:35 AM 60.4 °F 35.1 °F 39% 30.10 in 10.0 mi South 9.2 mph 18.4 mph N/A   Clear
1:54 AM 60.8 °F 35.1 °F 38% 30.10 in 10.0 mi South 10.4 mph - N/A   Clear
2:14 AM 60.8 °F 34.5 °F 37% 30.10 in 10.0 mi SSW 12.7 mph 21.9 mph N/A   Clear
2:35 AM 60.8 °F 34.3 °F 37% 30.10 in 10.0 mi SSW 12.7 mph 20.7 mph N/A   Clear
2:55 AM 60.8 °F 34.0 °F 37% 30.10 in 10.0 mi SSW 13.8 mph 19.6 mph N/A   Clear
3:15 AM 60.8 °F 33.8 °F 36% 30.10 in 10.0 mi SSW 15.0 mph 21.9 mph N/A   Clear
3:34 AM 60.8 °F 33.8 °F 36% 30.10 in 10.0 mi SSW 12.7 mph 23.0 mph N/A   Clear
3:55 AM 60.4 °F 33.8 °F 37% 30.10 in 10.0 mi SSW 13.8 mph 24.2 mph N/A   Clear
4:14 AM 59.9 °F 34.2 °F 38% 30.10 in 10.0 mi SSW 13.8 mph 23.0 mph N/A   Clear
4:35 AM 59.4 °F 34.7 °F 40% 30.10 in 10.0 mi SSW 15.0 mph 21.9 mph N/A   Clear
4:55 AM 59.0 °F 34.9 °F 40% 30.10 in 10.0 mi SSW 15.0 mph 24.2 mph N/A   Clear
5:15 AM 58.5 °F 35.1 °F 42% 30.10 in 10.0 mi SSW 13.8 mph 21.9 mph N/A   Clear
5:35 AM 58.3 °F 35.4 °F 42% 30.10 in 10.0 mi SSW 13.8 mph 23.0 mph N/A   Clear
5:54 AM 58.3 °F 35.2 °F 42% 30.10 in 10.0 mi SSW 15.0 mph 21.9 mph N/A   Clear
6:14 AM 58.3 °F 35.2 °F 42% 30.10 in 10.0 mi SSW 12.7 mph 23.0 mph N/A   Clear
6:35 AM 58.3 °F 35.2 °F 42% 30.10 in 10.0 mi SSW 12.7 mph 24.2 mph N/A   Clear
6:55 AM 58.3 °F 35.1 °F 42% 30.10 in 10.0 mi SSW 15.0 mph 24.2 mph N/A   Clear
7:14 AM 58.1 °F 35.1 °F 42% 30.10 in 10.0 mi SSW 12.7 mph 17.3 mph N/A   Clear
7:35 AM 58.3 °F 34.9 °F 41% 30.10 in 10.0 mi SSW 13.8 mph 21.9 mph N/A   Clear
8:15 AM 59.4 °F 35.1 °F 40% 30.10 in 10.0 mi SSW 15.0 mph 21.9 mph N/A   Clear
8:35 AM 60.4 °F 35.2 °F 39% 30.09 in 10.0 mi SSW 13.8 mph 24.2 mph N/A   Clear
8:54 AM 61.7 °F 35.6 °F 38% 30.09 in 10.0 mi SSW 18.4 mph 24.2 mph N/A   Clear
9:15 AM 63.5 °F 36.0 °F 36% 30.08 in 10.0 mi SSW 12.7 mph 19.6 mph N/A   Clear
9:34 AM 64.8 °F 35.8 °F 34% 30.09 in 10.0 mi SSW 18.4 mph 24.2 mph N/A   Clear
9:55 AM 66.2 °F 36.3 °F 33% 30.09 in 10.0 mi SSW 17.3 mph 24.2 mph N/A   Clear
10:15 AM 68.0 °F 37.2 °F 32% 30.09 in 10.0 mi SSW 18.4 mph 23.0 mph N/A   Clear
10:34 AM 69.1 °F 37.2 °F 31% 30.09 in 10.0 mi SSW 16.1 mph 21.9 mph N/A   Clear
10:55 AM 70.9 °F 37.8 °F 30% 30.09 in 10.0 mi SW 13.8 mph 19.6 mph N/A   Clear
11:14 AM 72.5 °F 38.1 °F 29% 30.09 in 10.0 mi SSW 11.5 mph - N/A   Clear
11:34 AM 74.1 °F 38.3 °F 27% 30.09 in 10.0 mi SSW 15.0 mph 20.7 mph N/A   Clear
11:55 AM 75.6 °F 38.3 °F 26% 30.09 in 10.0 mi SW 13.8 mph - N/A   Clear
12:15 PM 76.5 °F 38.5 °F 25% 30.09 in 10.0 mi South 10.4 mph 16.1 mph N/A   Clear
12:34 PM 77.7 °F 38.3 °F 24% 30.09 in 10.0 mi SW 11.5 mph 17.3 mph N/A   Clear
12:55 PM 78.8 °F 38.8 °F 24% 30.09 in 10.0 mi SSW 9.2 mph - N/A   Clear
1:14 PM 79.5 °F 37.9 °F 22% 30.08 in 10.0 mi SSW 10.4 mph 17.3 mph N/A   Clear
1:55 PM 82.2 °F 37.6 °F 20% 30.07 in 10.0 mi SSW 9.2 mph 17.3 mph N/A   Clear
2:15 PM 82.4 °F 36.9 °F 20% 30.06 in 10.0 mi South 9.2 mph 18.4 mph N/A   Clear
2:35 PM 83.7 °F 37.0 °F 19% 30.05 in 10.0 mi South 12.7 mph 19.6 mph N/A   Clear
2:55 PM 84.2 °F 37.0 °F 19% 30.05 in 10.0 mi South 12.7 mph 16.1 mph N/A   Clear
3:14 PM 84.4 °F 36.9 °F 18% 30.05 in 10.0 mi SSW 10.4 mph 17.3 mph N/A   Clear
3:34 PM 83.8 °F 36.0 °F 18% 30.04 in 10.0 mi SSW 12.7 mph 23.0 mph N/A   Clear
3:55 PM 84.2 °F 36.5 °F 18% 30.04 in 10.0 mi South 9.2 mph 17.3 mph N/A   Clear
4:34 PM 84.2 °F 36.5 °F 18% 30.04 in 10.0 mi South 6.9 mph 16.1 mph N/A   Clear
5:15 PM 83.3 °F 36.9 °F 19% 30.04 in 10.0 mi South 10.4 mph - N/A   Clear
5:35 PM 82.6 °F 37.9 °F 20% 30.04 in 10.0 mi South 6.9 mph - N/A   Clear
5:54 PM 81.5 °F 38.7 °F 22% 30.04 in 10.0 mi SSE 5.8 mph - N/A   Clear
6:15 PM 79.5 °F 39.4 °F 24% 30.04 in 10.0 mi SSE 6.9 mph - N/A   Clear
6:54 PM 74.5 °F 40.6 °F 30% 30.05 in 10.0 mi SSE 4.6 mph - N/A   Clear
7:15 PM 71.2 °F 40.6 °F 33% 30.05 in 10.0 mi SSE 4.6 mph - N/A   Clear
7:35 PM 69.6 °F 40.8 °F 35% 30.05 in 10.0 mi SSE 5.8 mph - N/A   Clear
7:55 PM 67.1 °F 41.9 °F 40% 30.06 in 10.0 mi SSE 6.9 mph - N/A   Clear
8:15 PM 68.5 °F 40.6 °F 36% 30.06 in 10.0 mi SSE 6.9 mph - N/A   Clear
8:35 PM 65.3 °F 41.5 °F 42% 30.06 in 10.0 mi SSE 6.9 mph - N/A   Clear
8:54 PM 64.6 °F 41.4 °F 43% 30.07 in 10.0 mi SSE 5.8 mph - N/A   Clear
9:15 PM 62.4 °F 41.5 °F 46% 30.07 in 10.0 mi SSE 5.8 mph - N/A   Clear
9:34 PM 61.9 °F 41.7 °F 48% 30.07 in 10.0 mi SSE 5.8 mph - N/A   Clear
9:55 PM 57.4 °F 42.3 °F 57% 30.07 in 10.0 mi SSE 6.9 mph - N/A   Clear
10:15 PM 56.8 °F 41.9 °F 57% 30.08 in 10.0 mi SE 6.9 mph - N/A   Clear
10:34 PM 54.9 °F 42.3 °F 63% 30.08 in 10.0 mi SSE 5.8 mph - N/A   Clear
10:55 PM 56.7 °F 41.9 °F 58% 30.08 in 10.0 mi SSE 4.6 mph - N/A   Clear
11:15 PM 62.4 °F 39.9 °F 44% 30.09 in 10.0 mi SSE 6.9 mph - N/A   Clear
11:34 PM 63.3 °F 39.9 °F 42% 30.09 in 10.0 mi South 5.8 mph - N/A   Clear
11:55 PM 63.7 °F 40.1 °F 42% 30.09 in 10.0 mi South 5.8 mph - N/A   Clear